DL3NBY Weather Reports


time (UTC)temp
F
wind
direction
speed
knots
gust
knots
rain 1hr
in
rain 24hr
in
rain mn
in
humidity
%
barometer
mb
20260901054112 56 0.0 0.0 0.00 0.60 0.01 99 1019.5
20260901053149 57 0.0 0.0 0.00 0.60 0.01 99 1019.4
20260901052146 57 0.0 0.0 0.00 0.60 0.01 99 1019.4
20260901051103 57 258 0.9 3.5 0.00 0.60 0.01 99 1019.3
20260901050119 56 243 0.9 5.2 0.00 0.60 0.01 99 1019.3
20260901045056 55 203 0.0 3.5 0.00 0.60 0.01 99 1019.2
20260901044053 55 0.0 0.0 0.01 0.60 0.01 99 1019.2
20260901043050 55 0.0 0.0 0.01 0.60 0.01 99 1019.1
20260901042047 56 0.0 0.0 0.01 0.60 0.01 99 1019.0
20260901040040 57 180 0.0 2.6 0.01 0.60 0.01 99 1019.0
20260901034034 56 234 0.9 4.3 0.00 0.59 0.00 99 1018.8
20260901033051 56 239 1.7 5.2 0.00 0.59 0.00 99 1018.7
20260901031024 53 0.0 0.0 0.00 0.60 0.00 99 1018.7
20260901030021 54 0.0 0.0 0.00 0.61 0.00 99 1018.6
20260901024035 52 0.0 0.0 0.00 0.65 0.00 99 1018.5
20260901023112 52 0.0 0.0 0.00 0.66 0.00 99 1018.5
20260901015100 53 0.0 0.0 0.00 0.66 0.00 99 1018.4
20260901014056 53 0.0 0.0 0.00 0.66 0.00 99 1018.2
20260901011107 54 0.0 0.0 0.00 0.66 0.00 99 1018.2
20260901005041 56 0.0 0.0 0.00 0.66 0.00 99 1018.0
20260901004120 57 0.0 0.0 0.00 0.66 0.00 99 1017.9
20260901001029 59 216 0.9 1.7 0.00 0.66 0.00 99 1017.6
20260901000025 59 225 0.9 3.5 0.00 0.66 0.00 99 1017.6
20260831234019 59 206 0.9 3.5 0.00 0.66 0.00 99 1017.7
20260831233016 59 207 2.6 7.0 0.00 0.66 0.00 99 1017.7
20260831232153 59 212 2.6 5.2 0.00 0.66 0.00 99 1017.7
20260831231110 59 230 1.7 7.0 0.00 0.66 0.00 99 1017.7
20260831230107 58 204 1.7 7.0 0.00 0.66 0.00 99 1017.6
20260831225105 58 192 2.6 5.2 0.00 0.66 0.00 99 1017.8
20260831224141 58 210 3.5 7.8 0.00 0.66 0.00 99 1017.7
20260831223057 58 203 3.5 6.1 0.00 0.66 0.00 99 1017.6
20260831222054 58 217 2.6 7.0 0.00 0.66 0.00 99 1017.6
20260831221051 58 238 1.7 4.3 0.00 0.66 0.00 99 1017.6
20260831220048 58 225 0.0 3.5 0.06 0.66 0.00 99 1017.6
20260831214034 59 195 1.7 7.0 0.13 0.66 0.66 98 1017.5
20260831213031 59 232 1.7 6.1 0.25 0.66 0.66 99 1017.5
20260831212028 59 249 1.7 5.2 0.48 0.66 0.66 99 1017.3
20260831211045 60 244 2.6 7.8 0.57 0.66 0.66 99 1017.3
20260831210021 59 236 1.7 9.6 0.51 0.60 0.60 99 1017.5
20260831205018 59 269 0.9 4.3 0.51 0.60 0.60 99 1017.3
20260831204017 59 225 0.9 3.5 0.44 0.53 0.53 99 1017.1
20260831202129 61 0.0 0.9 0.08 0.18 0.18 97 1016.9
20260831201106 61 206 0.9 3.5 0.00 0.09 0.09 95 1016.6
20260831194057 60 219 0.9 7.0 0.00 0.09 0.09 94 1016.4
20260831193053 60 225 0.9 2.6 0.01 0.09 0.09 96 1016.2
20260831192050 59 180 1.7 3.5 0.02 0.09 0.09 97 1016.1
20260831191047 60 0.0 1.7 0.02 0.09 0.09 98 1016.0
20260831190104 60 0.0 1.7 0.02 0.09 0.09 97 1015.9
20260831185040 61 203 0.0 1.7 0.02 0.09 0.09 96 1015.8
20260831184037 63 203 0.9 3.5 0.02 0.09 0.09 94 1015.8
20260831183034 63 290 3.5 13.9 0.01 0.08 0.08 88 1015.9
20260831182031 63 180 0.0 1.7 0.00 0.07 0.07 89 1015.7
20260831175022 64 270 0.0 1.7 0.00 0.07 0.07 85 1014.7
20260831174018 65 225 0.0 1.7 0.00 0.07 0.07 84 1014.4
20260831171109 68 0.0 1.7 0.00 0.07 0.07 74 1014.1
20260831170106 69 217 0.9 3.5 0.00 0.07 0.07 72 1014.1
20260831165123 70 203 0.0 2.6 0.00 0.07 0.07 70 1014.0
20260831164100 70 264 0.9 3.5 0.00 0.07 0.07 69 1014.2
20260831162054 71 180 0.0 2.6 0.00 0.07 0.07 65 1014.1
20260831161051 72 207 0.9 3.5 0.00 0.07 0.07 64 1013.9
20260831160047 72 79 0.9 3.5 0.00 0.07 0.07 63 1013.8
20260831155034 73 236 1.7 6.1 0.00 0.07 0.07 62 1013.8
20260831154130 73 251 0.9 3.5 0.00 0.07 0.07 63 1013.8
20260831153025 73 206 0.9 4.3 0.00 0.07 0.07 61 1013.7
20260831151017 73 218 0.9 3.5 0.00 0.07 0.07 63 1013.7
20260831150113 73 300 0.9 3.5 0.00 0.07 0.07 66 1013.9
20260831145110 72 247 0.0 3.5 0.00 0.07 0.07 70 1014.0
20260831143104 74 195 0.9 6.1 0.00 0.07 0.07 69 1014.0
20260831142120 73 215 0.9 6.1 0.00 0.07 0.07 70 1014.0
20260831141057 73 228 0.9 6.1 0.00 0.07 0.07 73 1014.2
20260831135051 72 169 1.7 7.0 0.00 0.07 0.07 74 1014.1
20260831134047 70 303 1.7 7.0 0.00 0.07 0.07 75 1014.2
20260831133045 67 64 1.7 3.5 0.00 0.07 0.07 80 1014.3
20260831132041 67 296 0.9 4.3 0.00 0.07 0.07 84 1014.6
20260831131038 70 207 2.6 9.6 0.00 0.07 0.07 78 1014.5
20260831125031 73 250 4.3 12.2 0.00 0.07 0.07 65 1013.9
20260831124029 75 227 2.6 9.6 0.00 0.07 0.07 64 1013.9
20260831123025 76 209 1.7 7.0 0.00 0.07 0.07 61 1013.8
20260831121019 73 209 3.5 9.6 0.00 0.07 0.07 65 1013.8
20260831120016 73 292 1.7 7.8 0.00 0.07 0.07 67 1013.9
20260831115113 72 240 0.9 2.6 0.00 0.07 0.07 69 1014.1
20260831114130 72 188 2.6 8.7 0.00 0.07 0.07 68 1014.2
20260831111100 73 153 0.9 6.1 0.00 0.07 0.07 68 1014.3
20260831110056 73 194 1.7 3.5 0.00 0.07 0.07 66 1014.3
20260831105053 73 258 1.7 3.5 0.00 0.07 0.07 64 1014.3
20260831104050 74 220 1.7 7.0 0.00 0.07 0.07 68 1014.2
20260831103047 72 229 2.6 8.7 0.00 0.07 0.07 67 1014.3
20260831102044 71 244 2.6 9.6 0.00 0.07 0.07 70 1014.3
20260831101040 72 231 3.5 13.0 0.00 0.07 0.07 71 1014.4
20260831100037 72 268 2.6 9.6 0.00 0.07 0.07 72 1014.4
20260831095034 70 241 2.6 9.6 0.00 0.07 0.07 74 1014.4
20260831094031 69 235 0.9 5.2 0.00 0.07 0.07 79 1014.5
20260831093049 68 209 2.6 7.8 0.00 0.07 0.07 80 1014.5
20260831092025 67 244 2.6 7.0 0.00 0.07 0.07 83 1014.7
20260831090039 68 215 4.3 13.0 0.00 0.07 0.07 82 1014.4
20260831085015 68 250 3.5 13.0 0.00 0.07 0.07 83 1014.3
20260831084112 68 228 1.7 7.0 0.00 0.07 0.07 85 1014.3
20260831082106 67 279 0.9 3.5 0.00 0.07 0.07 87 1014.3
20260831081102 67 313 1.7 4.3 0.00 0.07 0.07 88 1014.2
20260831075116 66 255 2.6 9.6 0.00 0.07 0.07 89 1013.9
20260831073050 65 248 0.9 4.3 0.00 0.07 0.07 94 1013.9
20260831072107 64 236 1.7 8.7 0.00 0.07 0.07 95 1013.8
20260831071044 64 197 1.7 6.1 0.00 0.07 0.07 96 1013.7
20260831065038 63 224 1.7 5.2 0.00 0.07 0.07 98 1013.7
20260831064035 63 199 0.9 5.2 0.00 0.07 0.07 98 1013.6
20260831063032 62 214 0.9 3.5 0.00 0.07 0.07 99 1013.5
20260831062028 62 214 0.9 6.1 0.00 0.07 0.07 99 1013.4
20260831061025 62 225 0.0 7.0 0.00 0.07 0.07 99 1013.2
20260831060021 62 215 0.9 4.3 0.00 0.07 0.07 99 1013.2
20260831055040 61 180 0.0 1.7 0.00 0.07 0.07 99 1013.2